Mt. Clemens, MI

5:40 AM EDT on October 15, 2019 (GMT -0400)
Selfridge Angb

Weather History for KMTC - September, 2019

Change the Weather History Date:

Sunday, September 15, 2019

  Actual Average Record
Temperature  
Mean Temperature 66 °F -  
Max Temperature 76 °F 71 °F 93 °F (1991)
Min Temperature 56 °F 52 °F 40 °F (1966)
Growing Degree Days 16 (Base 50)    
Moisture  
Dew Point 63 °F    
Average Humidity 92    
Maximum Humidity 100    
Minimum Humidity 63    
Precipitation  
Precipitation 0.10 in - - ()
Sea Level Pressure  
Sea Level Pressure 30.11 in    
Wind  
Wind Speed 4 mph (SW)    
Max Wind Speed 17 mph    
Max Gust Speed 26 mph    
Visibility 9 miles    
Events Rain    
Averages and records for this station are not official NWS values.
T = Trace of Precipitation, MM = Missing Value Source: NWS Daily Summary

Daily Weather History Graph

Daily Weather History Graph

Search for Another Location

Airport or City:

Astronomy

Sep. 15, 2019 Rise Set
Actual Time 7:10 AM EDT 7:41 PM EDT
Civil Twilight 6:42 AM EDT 8:09 PM EDT
Nautical Twilight 6:09 AM EDT 8:43 PM EDT
Astronomical Twilight 5:34 AM EDT 9:17 PM EDT
Moon 8:47 PM EDT 8:20 AM EDT
Length of Visible Light 13h 27m
Length of Day
12h 30m
Full, 98% of the Moon is Illuminated
Sep 15
Full
Sep 21
Last Quarter
Sep 28
New
Oct 5
First Quarter
Oct 13
Full

Hourly Weather History & Observations

Time (EDT) Temp. Dew Point Humidity Pressure Visibility Wind Dir Wind Speed Gust Speed Precip Events Conditions
12:56 AM 62.8 °F 57.2 °F 82% 30.18 in 10.0 mi WSW 3.5 mph - N/A   Clear
1:56 AM 57.2 °F 57.2 °F 100% 30.18 in 10.0 mi Calm Calm - N/A   Clear
2:56 AM 57.0 °F 57.0 °F 100% 30.18 in 10.0 mi Calm Calm - N/A   Clear
3:56 AM 56.8 °F 56.8 °F 100% 30.16 in 10.0 mi Calm Calm - N/A   Partly Cloudy
4:56 AM 56.5 °F 56.5 °F 100% 30.16 in 10.0 mi Calm Calm - N/A   Clear
5:56 AM 56.3 °F 56.3 °F 100% 30.15 in 10.0 mi North 3.5 mph - N/A   Mostly Cloudy
6:56 AM 57.7 °F 57.7 °F 100% 30.15 in 10.0 mi SSE 3.5 mph - N/A   Scattered Clouds
7:56 AM 60.3 °F 60.3 °F 100% 30.14 in 10.0 mi Calm Calm - N/A   Mostly Cloudy
8:55 AM 64.6 °F 64.6 °F 100% 30.15 in 10.0 mi Calm Calm - N/A   Mostly Cloudy
9:58 AM 68.0 °F 66.2 °F 94% 30.16 in 10.0 mi SSW 4.6 mph - N/A   Mostly Cloudy
10:55 AM 70.0 °F 63.1 °F 79% 30.15 in 10.0 mi Variable 4.6 mph - N/A   Mostly Cloudy
11:56 AM 72.1 °F 63.3 °F 74% 30.14 in 10.0 mi SW 9.2 mph - N/A   Overcast
12:58 PM 74.1 °F 64.0 °F 71% 30.12 in 10.0 mi SW 6.9 mph - N/A   Mostly Cloudy
1:55 PM 74.1 °F 61.5 °F 65% 30.12 in 10.0 mi SW 11.5 mph - N/A   Mostly Cloudy
2:55 PM 75.0 °F 61.5 °F 63% 30.09 in 10.0 mi SW 15.0 mph 23.0 mph N/A   Mostly Cloudy
3:30 PM 73.4 °F 62.6 °F 69% 30.08 in 7.0 mi SW 17.3 mph 26.5 mph N/A Rain Light Rain
3:55 PM 69.1 °F 64.9 °F 87% 30.09 in 5.0 mi SW 15.0 mph - 0.00 in Rain Light Rain
4:00 PM 68.0 °F 66.2 °F 94% 30.09 in 2.0 mi SW 12.7 mph - N/A Rain Light Rain
4:25 PM 66.2 °F 66.2 °F 100% 30.09 in 4.0 mi SW 4.6 mph - N/A Rain Rain
4:35 PM 66.2 °F 66.2 °F 100% 30.08 in 10.0 mi SSW 5.8 mph - N/A   Overcast
4:55 PM 66.2 °F 66.2 °F 100% 30.08 in 10.0 mi SSW 4.6 mph - 0.10 in   Overcast
5:07 PM 66.2 °F 66.2 °F 100% 30.08 in 10.0 mi SSW 4.6 mph - N/A   Overcast
5:57 PM 67.5 °F 67.5 °F 100% 30.06 in 10.0 mi Calm Calm - N/A   Overcast
6:55 PM 67.1 °F 67.1 °F 100% 30.07 in 10.0 mi Calm Calm - N/A   Overcast
7:55 PM 66.6 °F 66.6 °F 100% 30.06 in 10.0 mi East 3.5 mph - N/A   Overcast
8:55 PM 66.4 °F 66.4 °F 100% 30.06 in 10.0 mi Calm Calm - N/A   Overcast
9:55 PM 63.7 °F 63.7 °F 100% 30.06 in 10.0 mi North 4.6 mph - N/A   Scattered Clouds
10:55 PM 64.2 °F 64.2 °F 100% 30.07 in 10.0 mi Calm Calm - N/A   Mostly Cloudy
11:56 PM 63.5 °F 63.5 °F 100% 30.06 in 10.0 mi Calm Calm - N/A   Mostly Cloudy